This is the latest recevied weather packets stored in our database for station/object R1CBW-13. If no packets are shown the sender has not sent any weather packets the latest 10 day(s).
| Time | Temp. | Humidity | Pressure | Rain* | Wind** | Luminosity | Snow |
|---|---|---|---|---|---|---|---|
| 1778374904 | 8.33° C | 39% | 1023.3 hPa | 0 mm | - | - | - |
| 1778374844 | 7.22° C | 40% | 1023.3 hPa | 0 mm | - | - | - |
| 1778374784 | 7.78° C | 39% | 1023.3 hPa | 0 mm | - | - | - |
| 1778374724 | 7.78° C | 39% | 1023.3 hPa | 0 mm | - | - | - |
| 1778374664 | 7.78° C | 39% | 1023.3 hPa | 0 mm | - | - | - |
| 1778374604 | 6.67° C | 40% | 1023.3 hPa | 0 mm | - | - | - |
| 1778374544 | 7.22° C | 40% | 1023.3 hPa | 0 mm | - | - | - |
| 1778374484 | 7.22° C | 40% | 1023.4 hPa | 0 mm | - | - | - |
| 1778374424 | 7.22° C | 40% | 1023.3 hPa | 0 mm | - | - | - |
| 1778374364 | 6.67° C | 41% | 1023.4 hPa | 0 mm | - | - | - |
| 1778374304 | 7.22° C | 39% | 1023.2 hPa | 0 mm | - | - | - |
| 1778374184 | 8.33° C | 38% | 1023.4 hPa | 0 mm | - | - | - |
| 1778374124 | 7.78° C | 39% | 1023.3 hPa | 0 mm | - | - | - |
| 1778374064 | 7.78° C | 39% | 1023.4 hPa | 0 mm | - | - | - |
| 1778374004 | 7.22° C | 40% | 1023.3 hPa | 0 mm | - | - | - |
| 1778373884 | 7.22° C | 39% | 1023.3 hPa | 0 mm | - | - | - |
| 1778373824 | 7.78° C | 39% | 1023.4 hPa | 0 mm | - | - | - |
| 1778373764 | 8.33° C | 38% | 1023.4 hPa | 0 mm | - | - | - |
| 1778373704 | 7.78° C | 39% | 1023.2 hPa | 0 mm | - | - | - |
| 1778373644 | 7.78° C | 38% | 1023.3 hPa | 0 mm | - | - | - |
| 1778373584 | 7.78° C | 39% | 1023.3 hPa | 0 mm | - | - | - |
| 1778373524 | 7.78° C | 39% | 1023.3 hPa | 0 mm | - | - | - |
| 1778373464 | 7.78° C | 39% | 1023.3 hPa | 0 mm | - | - | - |
| 1778373404 | 7.78° C | 39% | 1023.3 hPa | 0 mm | - | - | - |
| 1778373344 | 7.78° C | 39% | 1023.3 hPa | 0 mm | - | - | - |
* Rain latest hour (hover to see other rain measurements)
** Current wind speed in m/s (hover to see current wind gust speed)